Regional Weather Roundup
Issued by NWS

Home | Current Version | Previous Version | Graphics & Text | Print | Product List | Glossary On
Versions: 1 2 3 4 5 6 7 8 9 10 11 12 13 14 15 16 17 18 19 20 21 22 23 24 25 26 27 28 29 30 31 32 33 34 35 36 37 38 39 40 41 42 43 44 45 46 47 48 49 50
000
ASUS43 KTOP 260659
RWRKS

WEATHER ROUNDUP FOR KANSAS
NATIONAL WEATHER SERVICE GOODLAND KS
200 AM CDT WED JUL 26 2017

NOTE:  "FAIR" INDICATES FEW OR NO CLOUDS BELOW 12,000 FEET WITH NO
SIGNIFICANT WEATHER AND/OR OBSTRUCTIONS TO VISIBILITY.

KSZ001>006-013>018-027>032-041>047-260800-
NORTHWEST KANSAS

CITY           SKY/WX    TMP DP  RH WIND       PRES   REMARKS
GOODLAND       CLOUDY    73  62  68 SW6       29.97F
HAYS           CLOUDY    85  68  56 S18G26    29.92F
HILL CITY      CLOUDY    86  65  49 S17G30    29.89S
RUSSELL        PTCLDY    84  65  52 S18G26    29.91F
$$

KSZ061>065-074>080-084>089-260800-
SOUTHWEST KANSAS

CITY           SKY/WX    TMP DP  RH WIND       PRES   REMARKS
DODGE CITY     CLOUDY    82  64  54 S14       29.99S
ELKHART          N/A     76  52  43 S9          N/A
GARDEN CITY    CLOUDY    82  64  54 S13G23    29.98R
GREAT BEND     CLOUDY    83  67  58 S17       29.95F
LIBERAL        MOCLDY    82  63  52 S17       30.01S
$$

KSZ066>073-081>083-090>101-260800-
SOUTHEAST KANSAS

CITY           SKY/WX    TMP DP  RH WIND       PRES   REMARKS
CHANUTE        CLEAR     79  72  79 S8        30.03F
COFFEYVILLE    CLEAR     80  74  81 SE7       30.03S
HUTCHINSON     PTCLDY    84  70  62 S16       29.97F
MEDICINE LODGE   N/A     83  66  56 S9        29.99S
NEWTON         PTCLDY    79  72  79 S10       30.01F
PARSONS        CLOUDY    80  73  79 S5        30.05R
WICHITA INTL   CLOUDY    83  72  69 S14       29.99F
WICHITA JABRA  PTCLDY    82  72  71 S13       30.00F
WINFIELD       CLEAR     82  72  71 S15       30.02S
$$

KSZ007>012-019>026-033>040-048>060-102>105-260800-
NORTHEAST KANSAS

CITY           SKY/WX    TMP DP  RH WIND       PRES   REMARKS
CONCORDIA      PTCLDY    81  70  69 S14       29.93F
EMPORIA        CLEAR     79  71  76 S13       30.01F
LAWRENCE       MOCLDY    75  74  96 SE6       30.01F
MANHATTAN      CLEAR     83  72  69 S8        29.97F
OLATHE IND     CLOUDY    78  73  84 SE7       30.04F
OLATHE EXE     PTCLDY    78  74  87 S3        30.04F
SALINA         PTCLDY    87  68  52 S17G25    29.93F
TOPEKA BILLARD MOCLDY    80  73  79 SE7       30.00F
TOPEKA FORBES  PTCLDY    80  72  76 SE7       30.00F
$$




USA.gov is the U.S. government's official web portal to all federal, state and local government web resources and services.